This is the latest recevied weather packets stored in our database for station/object KF4PPJ. If no packets are shown the sender has not sent any weather packets the latest 10 day(s).
| Time | Temp. | Humidity | Pressure | Rain* | Wind** | Luminosity | Snow |
|---|---|---|---|---|---|---|---|
| 1777856756 | 27.78° C | 38% | 1011.9 hPa | 0 mm | - | 275 W/m² | - |
| 1777856452 | 27.78° C | 36% | 1011.7 hPa | 0 mm | - | 287 W/m² | - |
| 1777856149 | 27.78° C | 37% | 1011.9 hPa | 0 mm | - | 300 W/m² | - |
| 1777855846 | 28.33° C | 37% | 1012.1 hPa | 0 mm | - | 288 W/m² | - |
| 1777855544 | 28.89° C | 36% | 1012 hPa | 0 mm | - | 306 W/m² | - |
| 1777855241 | 28.89° C | 36% | 1012.2 hPa | 0 mm | - | 341 W/m² | - |
| 1777854937 | 28.89° C | 37% | 1012 hPa | 0 mm | - | 333 W/m² | - |
| 1777854634 | 28.89° C | 36% | 1012.2 hPa | 0 mm | - | 351 W/m² | - |
| 1777854331 | 28.89° C | 34% | 1012.2 hPa | 0 mm | - | 382 W/m² | - |
| 1777854029 | 28.89° C | 34% | 1012.3 hPa | 0 mm | - | 410 W/m² | - |
| 1777853726 | 28.33° C | 35% | 1012.3 hPa | 0 mm | - | 405 W/m² | - |
| 1777853422 | 28.33° C | 34% | 1012.3 hPa | 0 mm | - | 398 W/m² | - |
| 1777853119 | 28.33° C | 34% | 1012.3 hPa | 0 mm | - | 409 W/m² | - |
| 1777852817 | 28.33° C | 34% | 1012.5 hPa | 0 mm | - | 445 W/m² | - |
| 1777852515 | 28.33° C | 34% | 1012.5 hPa | 0 mm | - | 439 W/m² | - |
| 1777852211 | 28.89° C | 35% | 1012.6 hPa | 0 mm | - | 452 W/m² | - |
| 1777851909 | 28.33° C | 36% | 1012.5 hPa | 0 mm | - | 487 W/m² | - |
| 1777851607 | 27.78° C | 36% | 1012.7 hPa | 0 mm | - | 496 W/m² | - |
| 1777851303 | 27.78° C | 36% | 1012.9 hPa | 0 mm | - | 512 W/m² | - |
| 1777850999 | 28.33° C | 37% | 1012.8 hPa | 0 mm | - | 485 W/m² | - |
| 1777850696 | 28.33° C | 37% | 1012.9 hPa | 0 mm | - | 461 W/m² | - |
| 1777850394 | 28.33° C | 37% | 1013 hPa | 0 mm | - | 506 W/m² | - |
| 1777850092 | 28.33° C | 37% | 1012.8 hPa | 0 mm | - | 547 W/m² | - |
| 1777849788 | 27.78° C | 38% | 1013 hPa | 0 mm | - | 484 W/m² | - |
| 1777849484 | 27.78° C | 38% | 1013.2 hPa | 0 mm | - | 495 W/m² | - |
* Rain latest hour (hover to see other rain measurements)
** Current wind speed in m/s (hover to see current wind gust speed)